Location: Flotzheim
(48.8375°N, 10.8136°E)
Time: 17:30:58
(UTC+00:00)

Cosmos 1626 - Pass Details

Date: 23 January 2021
Orbit: 490 x 493 km, 82.5° (Epoch: 01 March)

Event Time Altitude Azimuth Distance (km) Brightness Sun altitude
Rises 17:05:38 0° 219° (SW) 2,566 6.8 -10.7°
Reaches altitude 10° 17:08:02 10° 234° (SW) 1,689 6.1 -11.1°
Maximum altitude 17:11:04 24° 289° (WNW) 1,070 4.5 -11.6°
Drops below altitude 10° 17:14:08 10° 345° (NNW) 1,699 4.8 -12.1°
Sets 17:16:34 0° 359° (N) 2,586 5.6 -12.4°
